Regional Weather Roundup
Issued by NWS

Home | Current Version | Previous Version | Text Only | Print | Product List | Glossary Off
Versions: 1 2 3 4 5 6 7 8 9 10 11 12 13 14 15 16 17 18 19 20 21 22 23 24 25 26 27 28 29 30 31 32 33 34 35 36 37 38 39 40 41 42 43 44 45 46 47 48 49 50

000
ASUS43 KOAX 182110
RWRNE

WEATHER ROUNDUP FOR NEBRASKA
NATIONAL WEATHER SERVICE OMAHA NE
300 PM CST SAT NOV 18 2017

NOTES: SATELLITE DATA IS BEING USED TO AUGMENT CLOUD COVER ABOVE
       12000 FEET.
       "FAIR" INDICATES FEW OR NO CLOUDS BELOW 12,000 FEET WITH NO
       SIGNIFICANT WEATHER AND/OR OBSTRUCTIONS TO VISIBILITY.


NEZ001>004-019>022-054>056-182200-
NEBRASKA PANHANDLE

CITY           SKY/WX    TMP DP  RH WIND       PRES   REMARKS
SCOTTSBLUFF    SUNNY     44  13  28 NW16      30.18F
ALLIANCE       SUNNY     45  14  28 NW17G26   30.14F
CHADRON        SUNNY     45  15  30 NW17G28   30.16F
GORDON         FAIR      44  19  36 NW16      30.13S
KIMBALL        SUNNY     41  14  33 NW21G35   30.19S
SIDNEY         SUNNY     43  15  32 NW21G29   30.19S
$$

NEZ057>060-069>072-079>082-182200-
SOUTHWEST NEBRASKA

CITY           SKY/WX    TMP DP  RH WIND       PRES   REMARKS
NORTH PLATTE   SUNNY     48  18  30 NW25G31   30.15S
IMPERIAL       SUNNY     47  16  29 NW22G31   30.18F
LEXINGTON      MOSUNNY   49  23  35 NW23      30.13S
MCCOOK         SUNNY     49  21  33 NW22G31   30.16F
OGALLALA       SUNNY     48  16  27 NW26      30.16S
$$

NEZ005>010-023>029-035>040-094-182200-
NORTH CENTRAL NEBRASKA

CITY           SKY/WX    TMP DP  RH WIND       PRES   REMARKS
VALENTINE      SUNNY     46  22  38 N18G29    30.10F
AINSWORTH      SUNNY     43  24  45 NW24G35   30.10F
BROKEN BOW     MOSUNNY   47  24  40 NW22G30   30.11S
O`NEILL        SUNNY     41  27  57 NW18G25   30.10R
ORD            MOSUNNY   47  26  44 NW25G35   30.08F
THEDFORD       SUNNY     46  21  37 NW24G33   30.12S
$$

NEZ041-046>049-061>064-073>077-083>087-182200-
SOUTH CENTRAL NEBRASKA

CITY           SKY/WX    TMP DP  RH WIND       PRES   REMARKS
GRAND ISLAND   MOSUNNY   47  27  45 NW23G32   30.10R
AURORA         SUNNY     48  27  44 NW29      30.10R
HASTINGS       MOSUNNY   48  25  40 NW25G39   30.11R
HEBRON         MOSUNNY   52  27  38 NW24G32   30.09R
HOLDREGE       MOSUNNY   48  25  41 NW18G29   30.13R
KEARNEY        MOSUNNY   48  25  40 NW18G26   30.12R
YORK           SUNNY     48  28  46 NW25G31   30.07R
$$

NEZ011>018-030>034-042>045-182200-
NORTHEAST NEBRASKA

CITY           SKY/WX    TMP DP  RH WIND       PRES   REMARKS
NORFOLK        SUNNY     42  26  53 NW21G29   30.05R
ALBION         SUNNY     45  29  53 NW23      30.08R
BLAIR          SUNNY     45  31  58 NW24G30   30.01R
COLUMBUS       SUNNY     45  27  49 NW24G32   30.07R
FREMONT        SUNNY     46  29  51 NW28G33   30.05R
TEKAMAH        SUNNY     43  27  53 NW23G30   30.04R
WAYNE          SUNNY     41  22  47 NW24G33   30.05S
$$

NEZ050>053-065>068-078-088>093-182200-
SOUTHEAST NEBRASKA

CITY           SKY/WX    TMP DP  RH WIND       PRES   REMARKS
LINCOLN        SUNNY     50  28  42 NW25G33   30.05R
OMAHA EPPLEY   MOSUNNY   46  28  49 NW25G35   30.01R
BEATRICE       MOSUNNY   50  31  47 NW30G36   30.05S
FALLS CITY     MOSUNNY   51  31  46 NW21G37   30.00R
NEBRASKA CITY  MOSUNNY   49  32  51 NW29G36   30.01R
PLATTSMOUTH    MOSUNNY   47  30  50 NW26G36   30.00R
$$

NEZ044-045-051>053-067-182200-
OMAHA AREA

CITY           SKY/WX    TMP DP  RH WIND       PRES   REMARKS
OMAHA EPPLEY   MOSUNNY   46  28  49 NW25G35   30.01R
BLAIR          SUNNY     45  31  58 NW24G30   30.01R
FREMONT        SUNNY     46  29  51 NW28G33   30.05R
MILLARD        SUNNY     49  29  46 NW21G28   30.03R
OFFUTT AFB     SUNNY     48  27  45 NW18G28   30.01R
PLATTSMOUTH    MOSUNNY   47  30  50 NW26G36   30.00R
WAHOO          FAIR      47  28  46 NW22G32   30.04R
$$



USA.gov is the U.S. government's official web portal to all federal, state and local government web resources and services.